Location: Central Falls
(41.8900°N, 71.3929°W)
Time: 02:50:04
(UTC+00:00)

Vanguard 2 Rocket - Pass Details

Date: 08 December 2023
Orbit: 555 x 3309 km, 32.9° (Epoch: 01 March)

Event Time Altitude Azimuth Distance (km) Brightness Sun altitude
Rises 18:41:34 0° 240° (WSW) 5,797 12.0 19.3°
Reaches altitude 10° 18:44:57 10° 237° (WSW) 5,095 12.1 19.0°
Maximum altitude 19:00:46 58° 163° (SSE) 3,505 10.5 17.4°
Drops below altitude 10° 19:20:16 10° 92° (E) 6,144 10.8 15.2°
Sets 19:24:50 0° 89° (E) 7,005 11.0 14.7°
